THOR ABLESTAR DEB, 147

Orbit data source: Space-Track

THOR ABLESTAR DEB, 147 is space debris in LEO originally from a launch on Thu, 29 Jun 1961 UTC launched from the Air Force Eastern Test Range (AFETR). Debris objects in space refer to the collection of defunct objects orbiting the Earth. Examples of debris include non-operational satellites, rocket bodies, and fragments generated from explosions, collisions, or faulty payload assembly.

Loading next visibility...
Identifier
147, 1961-015AH
Orbit
LEO
Last TLE update
19 hours ago
Origin
Manufacturer
Unknown
Mission
Spacecraft
Bus & Motor
Unknown
Mass
Unknown
Launch date (UTC)
1961-06-29 (64 years ago)
Launch vehicle
Unknown
Launch site
Air Force Eastern Test Range (AFETR)
Object type
Payload
Rocket body
Debris
Shape & HBR
Unknown
Radar Cross Section
Medium (>0.1 m² and <1 m²)

Expand to show TLE details & history

TLE from 19 hours ago
0 THOR ABLESTAR DEB
1 00147U 61015AH  25200.59616070  .00000771  00000-0  36944-3 0  9992
2 00147  66.6168 144.8482 0058899 304.7073  54.8481 14.23463575287110
Epoch: 2025-07-19T14:18Z
TLE epoch observation values (Epoch: 2025-07-19T14:18:28.284Z)
Latitude
0.00002°
Longitude
-7.40064°
Altitude
791.534 km
Speed
7.471 km/s
True Right ascension
09h 39m 23s
True Declination
0° 00' 00"
Sunlit
Object was in daylight at epoch
Visualization orbit readout
Latitude
39.98299°
Longitude
11.71295°
Altitude
825.726 km
Speed
7.441 km/s
Apparent Right ascension
10h 28m 10s
Apparent Declination
2° 58' 09"
Sunlit
Object is in daylight
Visualization observer readout
Local Sidereal Time
21:56:55
Azimuth
348.624° N
Elevation
-46.52°
Doppler factor
1
Orbital elements
Apogee altitude
854.402 km
Perigee altitude
769.703 km
Semi-major axis
7,190.19 km
Eccentricity
0.00589
Inclination
66.6168°
RAAN
144.8482°
Arg. of periapsis
304.7073°
True anomaly
55.40228°
Mean anomaly
54.8481°
Eccentric anomaly
55.12496°
Mean motion
3.55986 °/min
Orbital period
101.13 mins
BSTAR
0.00036944
Loading maneuver chart data...
Loading SW <> Apogee altitude chart data...
|